Home > Weather > Welland > Past weeks

Flag for Canada Past Weather in Welland, Ontario, Canada — Yesterday and Last 2 Weeks

Now
70 °F

Mild.


Feels Like: 72 °F
Forecast: 66 / 85 °F
Wind: 16 mph from Southwest

Location: Port Colborne Airport

Current Time: Jun 26, 2016 at 10:04:38 AM

Latest Report: Jun 26, 2016 at 9:00 AM


Visibility: N/A

Pressure: 30.10 "Hg

Humidity: 77%

Dew Point: 62 °F

Location of WellandLocation

Past Weather in Welland — Graph

°F

Welland Temperature Yesterday

Maximum temperature yesterday: 76 °F (at 5:00 PM)
Minimum temperature yesterday: 64 °F (at 4:00 AM)
Average temperature yesterday: 71 °F

High & Low Weather Summary for the Past Weeks

 TemperatureHumidityPressure
High78 °F (Jun 24, 5:00 PM)79% (Jun 23, 5:00 AM)30.19 "Hg (Jun 23, 5:00 AM)
Low57 °F (Jun 24, 5:00 AM)30% (Jun 23, 4:00 PM)29.80 "Hg (Jun 22, 2:00 AM)
Average68 °F59%30.00 "Hg
* Reported Jun 21 2:00 PM — Jun 26 8:00 AM, Welland, Weather by CustomWeather, © 2016

Note: Actual official high and low records may vary slightly from our data, if they occured in-between our weather recording intervals... More about our weather records

Advertising

Welland Weather History for the Previous 24 Hours

Scroll right to see more
 ConditionsComfort  
Time TempWeatherWind HumidityBarometerVisibility
8:00 AM
Sun, Jun 26
71 °FMild.17 mph74%30.09 "HgN/A
7:00 AM71 °FMild.18 mph69%30.09 "HgN/A
6:00 AM69 °FMild.18 mph79%30.09 "HgN/A
5:00 AM69 °FMild.6 mph79%30.11 "HgN/A
4:00 AM70 °FMild.7 mph70%30.10 "HgN/A
3:00 AM70 °FMild.7 mph72%30.12 "HgN/A
2:00 AM70 °FMild.2 mph77%30.13 "HgN/A
1:00 AM71 °FMild.10 mph73%30.12 "HgN/A
12:00 AM74 °FMild.7 mph53%30.13 "HgN/A
11:00 PM
Sat, Jun 25
73 °FMild.5 mph60%30.11 "HgN/A
10:00 PM73 °FMild.1 mph68%30.11 "HgN/A
9:00 PM74 °FMild.6 mph67%N/AN/A
8:00 PM75 °FMild.6 mph59%N/AN/A
7:00 PM75 °FMild.7 mph62%N/AN/A
6:00 PM75 °FMild.6 mph55%N/AN/A
5:00 PM76 °FMild.7 mph36%N/AN/A
4:00 PM74 °FMild.6 mph57%30.14 "HgN/A
3:00 PM72 °FMild.6 mph67%30.15 "HgN/A
2:00 PM70 °FMild.3 mph70%30.17 "HgN/A
1:00 PM69 °FMild.5 mph71%30.19 "HgN/A
12:00 PM68 °FMild.6 mph75%30.18 "HgN/A
11:00 AM67 °FMild.6 mph72%30.18 "HgN/A
10:00 AM66 °FMild.3 mph73%30.19 "HgN/A
Weather by CustomWeather, © 2016

See weather overviewHow to use our weather pages